Regional Weather Roundup
Issued by NWS Portland, ME

Home | Current Version | Previous Version | Text Only | Print | Product List | Glossary On
Versions: 1 2 3 4 5 6 7 8 9 10 11 12 13 14 15 16 17 18 19 20 21 22 23 24 25 26 27 28 29 30 31 32 33 34 35 36 37 38 39 40 41 42 43 44 45 46 47 48 49 50
000
ASUS41 KGYX 300710
RWRGYX
WEATHER ROUNDUP FOR MAINE AND NEW HAMPSHIRE
NATIONAL WEATHER SERVICE GRAY ME
300 AM EDT SAT APR 30 2016

MEZ002-005-006-010-012-015-018-020-021-024-026-027-029-300800-
MAINE

CITY           SKY/WX    TMP DP  RH WIND       PRES   REMARKS
PORTLAND       CLEAR     35  32  88 SW3       30.19S
SANFORD        CLEAR     27  25  93 W3        30.18S
BAR HARBOR     CLEAR     31  30  96 CALM      30.20R
WISCASSET      CLEAR     30  28  92 CALM      30.20R
ROCKLAND       CLEAR     30  28  92 CALM      30.19S
FRYEBURG       CLEAR     28  26  92 CALM      30.16S
LEWISTONAUBURN CLEAR     30  27  86 CALM      30.17S
AUGUSTA        PTCLDY    35  33  92 CALM      30.17F
WATERVILLE     CLOUDY    33  31  92 CALM      30.15S
BANGOR         CLOUDY    33  28  81 CALM      30.20R
GREENVILLE       N/A     32  20  61 NW6       30.13R
MILLINOCKET    CLEAR     29  18  63 CALM      30.21R
HOULTON        PTCLDY    24  17  74 S3        30.18R
PRESQUE ISLE   PTCLDY    24  18  77 CALM      30.19R
FRENCHVILLE    CLEAR     29  12  49 NW5       30.17R
CARIBOU        PTCLDY    29  14  53 NW8       30.17R
$$

NHZ002-005-008-009-011-012-014-300800-
NEW HAMPSHIRE

CITY           SKY/WX    TMP DP  RH WIND       PRES   REMARKS
PORTSMOUTH     PTCLDY    40  34  79 NE5       30.15F
ROCHESTER      PTCLDY    35  30  82 CALM      30.16F
NASHUA         MOCLDY    40  33  76 CALM      30.16S
MANCHESTER     PTCLDY    44  31  60 SE3       30.14S
CONCORD        CLEAR     39  31  72 NE3       30.15F
LACONIA        CLEAR     36  28  75 CALM      30.16F
PLYMOUTH       FAIR      33  33  98 CALM      30.15F
BERLIN         CLOUDY    26  21  81 CALM      30.15S
WHITEFIELD     CLOUDY    29  25  85 CALM      30.14S
JAFFREY        CLOUDY    43  32  65 S3        30.13S
KEENE            N/A    N/A N/A N/A MISG        N/A
LEBANON        PTCLDY    39  32  76 N3        30.13S
MT WASHINGTON  MOCLDY    25  19  80 W20         N/A  WCI  11
$$

VTZ005-007-008-300800-
VERMONT

CITY           SKY/WX    TMP DP  RH WIND       PRES   REMARKS
ST JOHNSBURY     N/A     35  23  61 MISG      30.14S
MONTPELIER     CLOUDY    39  21  48 CALM      30.18F
BURLINGTON     FAIR      41  20  43 NW6       30.17R
$$

MAZ007-012-024-CTZ003-RIZ002-NYZ038-NYZ072-300800-
SOUTHERN NEW ENGLAND AND NY

CITY           SKY/WX    TMP DP  RH WIND       PRES   REMARKS
BOSTON         PTCLDY    42  32  67 S6        30.18S
WORCESTER      CLOUDY    42  30  62 SW6       30.14S
NANTUCKET      MOCLDY    41  34  76 NE5       30.17S
PROVIDENCE     MOCLDY    44  33  65 N3        30.17F
HARTFORD       CLOUDY    46  37  71 SW8       30.16S
ALBANY         CLOUDY    47  38  71 SE3       30.15S
NEW YORK CITY  CLOUDY    48  38  68 NE10      30.15F
$$

ANZ081-ANZ082-ANZ150-NHZ014-MEZ023>029-300800-
COASTAL MARINE OBSERVATIONS

STATION/POSITION TIME  TEMP    WIND        PRES    WAVE
                       AIR SEA DIR/SP/G            HT/PER
                 (UTC) (F)     (DEG/KT/KT) (MB)    (FT/S)
MOUNT DESERT ROC 0700   42     260/  8/  9 1022.5R
MATINICUS ROCK   0600   42     260/  9/  9 1021.9R
ISLE OF SHOALS   0600   44     190/ 11/ 12 1021.3R
CASHES LEDGE BUO 0650   43 44  260/  6/  6 1021.9F   2/10
GEORGES BANK BUO 0650   42 45              1019.9F   3/10
$$

.............KEY..............
   WCI - WIND CHILL
   TC  - TEMPERATURE IN CELSIUS
   VSB - VISIBILITY IN MILES
   HX  - HEAT INDEX
   FAIR- INDICATES FEW OR NO CLOUDS BELOW 12,000 FT, WITH NO
         SIGNIFICANT WEATHER AND/OR OBSTRUCTIONS TO VISIBILITY.





USA.gov is the U.S. government's official web portal to all federal, state and local government web resources and services.